E7739 Weather Reports


Display with metric or nautical units.
time (UTC)temp
F
wind
direction
speed
MPH
gust
MPH
rain 1hr
in
rain 24hr
in
rain mn
in
humidity
%
barometer
mb
20260905234408 86 51 6.0 11.0 0.00 0.00 0.00 75 1011.7
20260905233908 87 339 5.0 13.0 0.00 0.00 0.00 74 1011.7
20260905232900 87 12 5.0 10.0 0.00 0.00 0.00 74 1011.6
20260905232402 88 12 5.0 11.0 0.00 0.00 0.00 73 1011.6
20260905231856 88 49 5.0 11.0 0.00 0.00 0.00 72 1011.4
20260905225858 89 38 6.0 11.0 0.00 0.00 0.00 69 1011.2
20260905225358 90 49 6.0 12.0 0.00 0.00 0.00 68 1011.2
20260905224338 91 44 5.0 11.0 0.00 0.00 0.00 67 1011.2
20260905223828 91 63 4.0 9.0 0.00 0.00 0.00 67 1011.2
20260905222305 91 32 4.0 11.0 0.00 0.00 0.00 68 1011.2
20260905221756 91 28 5.0 11.0 0.00 0.00 0.00 68 1011.2
20260905221245 91 1 6.0 13.0 0.00 0.00 0.00 68 1011.2
20260905220233 92 2 6.0 13.0 0.00 0.00 0.00 66 1011.1
20260905215728 92 27 4.0 11.0 0.00 0.00 0.00 67 1011.1
20260905214707 92 7 3.0 9.0 0.00 0.00 0.00 66 1011.1
20260905214158 92 344 3.0 7.0 0.00 0.00 0.00 68 1011.1
20260905213652 91 21 4.0 9.0 0.00 0.00 0.00 67 1011.1
20260905213141 92 17 4.0 9.0 0.00 0.00 0.00 67 1011.1
20260905212125 93 12 4.0 10.0 0.00 0.00 0.00 66 1011.1
20260905211616 93 346 5.0 10.0 0.00 0.00 0.00 66 1011.1
20260905211105 93 21 4.0 9.0 0.00 0.00 0.00 65 1011.1
20260905210605 93 39 4.0 10.0 0.00 0.00 0.00 66 1011.5
20260905210105 93 21 4.0 10.0 0.00 0.00 0.00 67 1011.5
20260905205605 92 36 5.0 10.0 0.00 0.00 0.00 65 1011.5
20260905205106 93 7 5.0 11.0 0.00 0.00 0.00 66 1011.4
20260905204604 93 343 5.0 11.0 0.00 0.00 0.00 66 1011.4
20260905204101 93 50 4.0 10.0 0.00 0.00 0.00 67 1011.4
20260905203559 93 38 5.0 11.0 0.00 0.00 0.00 66 1011.5
20260905203055 93 49 5.0 11.0 0.00 0.00 0.00 66 1011.5
20260905202554 93 7 5.0 9.0 0.00 0.00 0.00 66 1011.5
20260905202052 93 12 4.0 9.0 0.00 0.00 0.00 66 1011.4
20260905201053 94 12 4.0 10.0 0.00 0.00 0.00 65 1011.4
20260905200553 94 44 5.0 10.0 0.00 0.00 0.00 64 1011.5
20260905200044 94 34 5.0 11.0 0.00 0.00 0.00 62 1011.5
20260905195546 95 25 5.0 12.0 0.00 0.00 0.00 64 1011.5
20260905195043 95 21 3.0 12.0 0.00 0.00 0.00 61 1011.5
20260905194544 96 7 2.0 5.0 0.00 0.00 0.00 63 1011.5
20260905194034 95 21 2.0 9.0 0.00 0.00 0.00 63 1011.5
20260905193529 95 321 4.0 10.0 0.00 0.00 0.00 63 1011.5
20260905193029 94 54 4.0 10.0 0.00 0.00 0.00 62 1011.5
20260905192509 94 29 3.0 9.0 0.00 0.00 0.00 65 1011.5
20260905191958 94 7 4.0 10.0 0.00 0.00 0.00 64 1011.6
20260905191451 94 306 3.0 10.0 0.00 0.00 0.00 61 1011.6
20260905190947 94 7 3.0 7.0 0.00 0.00 0.00 67 1011.6
20260905190440 94 330 3.0 7.0 0.00 0.00 0.00 65 1011.7
20260905185932 94 7 2.0 6.0 0.00 0.00 0.00 63 1011.7
20260905185425 94 321 1.0 4.0 0.00 0.00 0.00 64 1011.7
20260905184916 94 21 1.0 4.0 0.00 0.00 0.00 63 1012.0
20260905184406 94 310 2.0 12.0 0.00 0.00 0.00 62 1012.0
20260905183855 94 337 2.0 12.0 0.00 0.00 0.00 63 1012.0
20260905183345 94 334 2.0 6.0 0.00 0.00 0.00 61 1012.1
20260905182331 95 7 2.0 6.0 0.00 0.00 0.00 61 1012.1
20260905181819 95 323 2.0 5.0 0.00 0.00 0.00 62 1012.1
20260905181304 95 7 3.0 7.0 0.00 0.00 0.00 63 1012.1
20260905180807 94 2 2.0 7.0 0.00 0.00 0.00 61 1012.1
20260905175754 94 353 2.0 5.0 0.00 0.00 0.00 66 1012.1
20260905175255 94 322 3.0 10.0 0.00 0.00 0.00 68 1012.1
20260905174748 94 29 4.0 10.0 0.00 0.00 0.00 63 1012.2
20260905173239 94 25 2.0 6.0 0.00 0.00 0.00 64 1012.2
20260905172732 94 7 1.0 4.0 0.00 0.00 0.00 64 1012.2
20260905171719 94 321 1.0 4.0 0.00 0.00 0.00 63 1012.3
20260905171207 94 336 2.0 6.0 0.00 0.00 0.00 62 1012.3
20260905170655 94 40 2.0 7.0 0.00 0.00 0.00 64 1012.5
20260905170140 94 43 2.0 7.0 0.00 0.00 0.00 64 1012.5
20260905165131 94 12 2.0 10.0 0.00 0.00 0.00 63 1012.6
20260905164626 94 327 2.0 10.0 0.00 0.00 0.00 63 1012.6
20260905164127 93 341 2.0 7.0 0.00 0.00 0.00 63 1012.6
20260905163621 93 291 2.0 9.0 0.00 0.00 0.00 64 1012.6
20260905162619 92 277 1.0 4.0 0.00 0.00 0.00 67 1012.6
20260905162111 92 355 1.0 4.0 0.00 0.00 0.00 65 1012.6
20260905161608 92 318 1.0 4.0 0.00 0.00 0.00 65 1012.6
20260905161109 92 56 2.0 4.0 0.00 0.00 0.00 68 1012.6
20260905160601 92 29 2.0 5.0 0.00 0.00 0.00 68 1012.5
20260905160052 92 226 1.0 5.0 0.00 0.00 0.00 68 1012.5
20260905155549 92 327 2.0 5.0 0.00 0.00 0.00 67 1012.5
20260905155038 92 357 2.0 6.0 0.00 0.00 0.00 67 1012.6
20260905153508 91 345 1.0 4.0 0.00 0.00 0.00 70 1012.6
20260905153000 90 349 1.0 4.0 0.00 0.00 0.00 74 1012.6
20260905152457 90 305 1.0 5.0 0.00 0.00 0.00 69 1012.6
20260905151956 89 319 1.0 5.0 0.00 0.00 0.00 70 1012.6
20260905151451 89 21 0.0 2.0 0.00 0.00 0.00 73 1012.6
20260905150951 88 7 1.0 3.0 0.00 0.00 0.00 75 1012.6
20260905145941 88 288 1.0 4.0 0.00 0.00 0.00 74 1012.3
20260905145434 88 293 0.0 2.0 0.00 0.00 0.00 73 1012.3
20260905144935 87 287 0.0 2.0 0.00 0.00 0.00 75 1012.2
20260905144416 87 287 0.0 2.0 0.00 0.00 0.00 74 1012.2
20260905143917 87 287 0.0 3.0 0.00 0.00 0.00 76 1012.2
20260905142834 87 287 0.0 2.0 0.00 0.00 0.00 74 1012.2
20260905142325 86 296 0.0 2.0 0.00 0.00 0.00 75 1012.2
20260905141821 86 296 0.0 2.0 0.00 0.00 0.00 76 1012.2
20260905141310 85 271 0.0 2.0 0.00 0.00 0.00 76 1012.2
20260905140800 85 271 0.0 2.0 0.00 0.00 0.00 76 1012.2
20260905140248 84 271 1.0 3.0 0.00 0.00 0.00 76 1012.5
20260905135740 84 271 1.0 3.0 0.00 0.00 0.00 77 1012.5
20260905135233 83 277 1.0 3.0 0.00 0.00 0.00 78 1012.5
20260905134724 83 244 0.0 2.0 0.00 0.00 0.00 79 1012.6
20260905134210 83 244 0.0 1.0 0.00 0.00 0.00 81 1012.6
20260905133709 83 244 1.0 2.0 0.00 0.00 0.00 79 1012.6
20260905133153 82 244 1.0 3.0 0.00 0.00 0.00 81 1012.4
20260905132654 82 244 1.0 3.0 0.00 0.00 0.00 83 1012.4
20260905131641 81 223 1.0 4.0 0.00 0.00 0.00 83 1012.3
20260905131138 80 287 1.0 3.0 0.00 0.00 0.00 83 1012.3
20260905130639 80 284 0.0 3.0 0.00 0.00 0.00 84 1012.3
20260905130127 80 232 0.0 1.0 0.00 0.00 0.00 85 1012.3
20260905125616 79 232 0.0 2.0 0.00 0.00 0.00 87 1012.3
20260905125054 78 232 0.0 2.0 0.00 0.00 0.00 87 1012.3
20260905124546 78 232 0.0 2.0 0.00 0.00 0.00 88 1012.3
20260905124029 77 232 0.0 2.0 0.00 0.00 0.00 89 1012.3
20260905123525 77 232 0.0 2.0 0.00 0.00 0.00 90 1012.3
20260905123012 76 232 0.0 3.0 0.00 0.00 0.00 90 1012.3
20260905121948 76 232 1.0 3.0 0.00 0.00 0.00 91 1012.0
20260905120932 75 232 1.0 3.0 0.00 0.00 0.00 92 1012.0
20260905120426 75 232 2.0 4.0 0.00 0.00 0.00 93 1011.7
20260905115416 75 224 1.0 3.0 0.00 0.00 0.00 93 1011.7
20260905114909 74 224 1.0 3.0 0.00 0.00 0.00 94 1011.7
20260905114358 74 282 1.0 2.0 0.00 0.00 0.00 94 1011.7
20260905113852 74 282 0.0 2.0 0.00 0.00 0.00 94 1011.7
20260905113342 74 282 0.0 0.0 0.00 0.00 0.00 95 1011.7
20260905112839 74 282 0.0 0.0 0.00 0.00 0.00 94 1011.7
20260905112305 74 282 0.0 0.0 0.00 0.00 0.00 94 1011.7
20260905111740 74 282 0.0 0.0 0.00 0.00 0.00 94 1011.6
20260905111205 75 282 0.0 0.0 0.00 0.00 0.00 94 1011.6
20260905110702 75 282 0.0 0.0 0.00 0.00 0.00 95 1011.5
20260905110143 75 282 0.0 0.0 0.00 0.00 0.00 95 1011.5
20260905105641 74 282 0.0 0.0 0.00 0.00 0.00 95 1011.5
20260905105140 74 282 0.0 0.0 0.00 0.00 0.00 95 1011.6
20260905104610 75 282 0.0 0.0 0.00 0.00 0.00 95 1011.6
20260905104100 75 282 0.0 0.0 0.00 0.00 0.00 95 1011.6
20260905103534 75 282 0.0 0.0 0.00 0.00 0.00 95 1011.6
20260905103029 75 282 0.0 0.0 0.00 0.00 0.00 95 1011.6
20260905102010 74 282 0.0 0.0 0.00 0.00 0.00 96 1011.6
20260905100948 74 282 0.0 0.0 0.00 0.00 0.00 96 1011.6
20260905100431 74 282 0.0 0.0 0.00 0.00 0.00 96 1011.6
20260905095859 74 282 0.0 0.0 0.00 0.00 0.00 95 1011.6
20260905095352 74 282 0.0 0.0 0.00 0.00 0.00 95 1011.6
20260905093851 74 282 0.0 0.0 0.00 0.00 0.00 95 1011.6
20260905093350 75 282 0.0 0.0 0.00 0.00 0.00 95 1011.6
20260905092824 75 282 0.0 0.0 0.00 0.00 0.00 95 1011.6
20260905092314 75 282 0.0 0.0 0.00 0.00 0.00 95 1011.6
20260905091756 75 282 0.0 0.0 0.00 0.00 0.00 95 1011.6
20260905091250 75 282 0.0 0.0 0.00 0.00 0.00 95 1011.6
20260905090739 75 282 0.0 0.0 0.00 0.00 0.00 95 1011.6
20260905085152 75 282 0.0 0.0 0.00 0.00 0.00 94 1011.5
20260905084646 75 282 0.0 0.0 0.00 0.00 0.00 94 1011.5
20260905084146 75 282 0.0 0.0 0.00 0.00 0.00 94 1011.5
20260905083642 75 282 0.0 0.0 0.00 0.00 0.00 94 1011.5
20260905083140 76 282 0.0 0.0 0.00 0.00 0.00 94 1011.5
20260905082638 76 282 0.0 0.0 0.00 0.00 0.00 93 1011.5
20260905082134 76 282 0.0 0.0 0.00 0.00 0.00 93 1011.5
20260905081618 76 282 0.0 0.0 0.00 0.00 0.00 93 1011.5
20260905081110 76 282 0.0 0.0 0.00 0.00 0.00 93 1011.5
20260905080056 76 282 0.0 0.0 0.00 0.00 0.00 92 1011.5
20260905075542 76 282 0.0 0.0 0.00 0.00 0.00 92 1011.5
20260905075032 76 282 0.0 0.0 0.00 0.00 0.00 92 1011.5
20260905074525 76 282 0.0 0.0 0.00 0.00 0.00 92 1011.5
20260905074014 77 282 0.0 0.0 0.00 0.00 0.00 92 1011.5
20260905073508 76 282 0.0 0.0 0.00 0.00 0.00 92 1011.7
20260905073003 76 282 0.0 0.0 0.00 0.00 0.00 92 1011.7
20260905071956 76 282 0.0 0.0 0.00 0.00 0.00 92 1012.1
20260905071436 76 282 0.0 0.0 0.00 0.00 0.00 93 1012.1
20260905070430 76 282 0.0 0.0 0.00 0.00 0.00 93 1012.0
20260905065924 76 282 0.0 0.0 0.00 0.00 0.00 93 1012.0
20260905064857 76 282 0.0 0.0 0.00 0.00 0.00 92 1012.0
20260905063844 76 282 0.0 0.0 0.00 0.00 0.00 93 1012.0
20260905062305 76 282 0.0 0.0 0.00 0.00 0.00 93 1012.1
20260905061748 76 282 0.0 0.0 0.00 0.00 0.00 93 1012.2
20260905061236 76 282 0.0 0.0 0.00 0.00 0.00 93 1012.2
20260905060722 77 282 0.0 0.0 0.00 0.00 0.00 93 1012.2
20260905060216 77 282 0.0 0.0 0.00 0.00 0.00 93 1012.1
20260905055701 77 282 0.0 0.0 0.00 0.00 0.00 94 1012.1
20260905055159 77 282 0.0 0.0 0.00 0.00 0.00 93 1012.1
20260905054630 77 282 0.0 0.0 0.00 0.00 0.00 93 1012.1
20260905054053 77 282 0.0 0.0 0.00 0.00 0.00 93 1012.1
20260905053518 77 282 0.0 0.0 0.00 0.00 0.00 93 1012.1
20260905052501 77 282 0.0 0.0 0.00 0.00 0.00 93 1012.1
20260905052002 77 282 0.0 0.0 0.00 0.00 0.00 93 1012.2
20260905051447 77 282 0.0 0.0 0.00 0.00 0.00 92 1012.2
20260905050947 77 282 0.0 0.0 0.00 0.00 0.00 92 1012.2
20260905050445 77 282 0.0 0.0 0.00 0.00 0.00 92 1012.1
20260905045929 77 282 0.0 0.0 0.00 0.00 0.00 92 1012.1
20260905045419 77 282 0.0 0.0 0.00 0.00 0.00 92 1012.1
20260905044919 77 282 0.0 0.0 0.00 0.00 0.00 92 1012.1
20260905044357 78 282 0.0 0.0 0.00 0.00 0.00 92 1012.1
20260905043844 78 282 0.0 0.0 0.00 0.00 0.00 92 1012.1
20260905043335 78 282 0.0 0.0 0.00 0.00 0.00 92 1012.1
20260905042753 78 282 0.0 0.0 0.00 0.00 0.00 91 1012.1
20260905042233 78 282 0.0 0.0 0.00 0.00 0.00 91 1012.1
20260905040706 78 282 0.0 0.0 0.00 0.00 0.00 91 1012.1
20260905035657 78 282 0.0 0.0 0.00 0.00 0.00 91 1012.1
20260905035146 79 282 0.0 0.0 0.00 0.00 0.00 91 1012.2
20260905034641 79 282 0.0 0.0 0.00 0.00 0.00 91 1012.2
20260905034139 79 282 0.0 0.0 0.00 0.00 0.00 91 1012.2
20260905033634 79 282 0.0 0.0 0.00 0.00 0.00 91 1012.2
20260905033120 79 282 0.0 0.0 0.00 0.00 0.00 91 1012.2
20260905032612 79 282 0.0 0.0 0.00 0.00 0.00 91 1012.2
20260905032101 79 282 0.0 0.0 0.00 0.00 0.00 91 1012.3
20260905031557 79 282 0.0 0.0 0.00 0.00 0.00 90 1012.3
20260905031052 79 282 0.0 0.0 0.00 0.00 0.00 91 1012.3
20260905030514 80 282 0.0 0.0 0.00 0.00 0.00 91 1012.2
20260905025951 80 282 0.0 0.0 0.00 0.00 0.00 91 1012.2
20260905024924 80 282 0.0 0.0 0.00 0.00 0.00 90 1012.2
20260905024410 80 282 0.0 0.0 0.00 0.00 0.00 89 1012.2
20260905023856 80 282 0.0 0.0 0.00 0.00 0.00 89 1012.2
20260905022756 81 282 0.0 0.0 0.00 0.00 0.00 89 1012.1
20260905022250 81 282 0.0 0.0 0.00 0.00 0.00 89 1012.1
20260905021750 81 282 0.0 0.0 0.00 0.00 0.00 89 1012.0
20260905021251 81 282 0.0 0.0 0.00 0.00 0.00 89 1012.0
20260905020748 82 282 0.0 0.0 0.00 0.00 0.00 89 1012.0
20260905020238 82 282 0.0 0.0 0.00 0.00 0.00 88 1011.7
20260905015700 82 282 0.0 0.0 0.00 0.00 0.00 87 1011.7
20260905015128 82 282 0.0 0.0 0.00 0.00 0.00 87 1011.5
20260905014601 82 282 0.0 0.0 0.00 0.00 0.00 87 1011.5
20260905014102 83 282 0.0 0.0 0.00 0.00 0.00 86 1011.5
20260905012508 83 282 0.0 0.0 0.00 0.00 0.00 85 1011.6
20260905011958 84 282 0.0 0.0 0.00 0.00 0.00 85 1011.6
20260905010954 85 282 0.0 0.0 0.00 0.00 0.00 83 1011.6
20260905010453 85 282 0.0 0.0 0.00 0.00 0.00 83 1011.4
20260905005920 85 282 0.0 0.0 0.00 0.00 0.00 82 1011.4
20260905005412 86 282 0.0 0.0 0.00 0.00 0.00 81 1011.4
20260905004901 87 282 0.0 0.0 0.00 0.00 0.00 80 1011.1
20260905004354 87 282 0.0 0.0 0.00 0.00 0.00 79 1011.1
20260905003852 88 282 0.0 0.0 0.00 0.00 0.00 79 1011.1
20260905003350 88 282 0.0 0.0 0.00 0.00 0.00 77 1011.1
20260905002810 89 282 0.0 0.0 0.00 0.00 0.00 73 1011.1
20260905001743 90 282 0.0 0.0 0.00 0.00 0.00 74 1011.2
20260905001226 90 282 0.0 0.0 0.00 0.00 0.00 71 1011.2
20260905000727 91 282 0.0 0.0 0.00 0.00 0.00 70 1011.2
20260905000226 91 282 0.0 0.0 0.00 0.00 0.00 70 1011.4
20260904235716 92 282 0.0 0.0 0.00 0.00 0.00 69 1011.4
20260904235206 92 282 0.0 0.0 0.00 0.00 0.00 69 1011.4